Temperature
21 20 20 20 20 20 20 20 20 20 20 20 20 20 20 20 20 20 20 20 20 20 20 20 20 20 20 20 20 20 20 20 20 19 19 19 19 19 19 19 18 18 18
22 21 21 21 21 21 21 20 20 20 20 20 20 20 20 20 20 20 20 20 20 20 20 20 20 20 20 20 20 20 20 20 20 19 19 19 19 19 19 19 19 19 18
22 21 21 21 21 21 21 21 20 21 21 21 21 21 20 20 20 20 20 20 20 20 20 20 20 20 20 20 20 20 20 20 20 19 19 19 19 19 19 19 19 19 19
22 21 21 21 21 21 21 21 21 21 21 21 20 20 20 20 20 20 20 20 20 20 20 20 20 20 20 20 20 20 20 19 19 19 19 19 18 18 18 18 18 18 18
22 22 21 21 21 21 21 21 21 21 20 20 20 20 20 20 20 20 20 20 20 20 20 20 20 20 20 20 20 19 19 19 19 19 18 18 18 18 18 18 18 18 18
22 22 21 21 21 21 21 21 20 20 20 20 20 20 20 20 20 20 20 20 20 20 20 20 20 20 19 19 19 19 19 19 19 19 18 18 18 18 18 18 18 17 17
22 22 21 21 21 21 21 21 21 20 20 20 20 20 20 20 20 20 20 20 20 20 20 20 20 19 19 19 19 19 19 19 19 18 18 18 18 18 18 18 18 17 17
22 22 21 21 21 21 21 21 21 21 21 20 20 20 20 20 20 19 19 19 19 19 19 19 19 19 19 19 19 19 19 18 18 18 18 18 18 18 18 18 18 17 17
22 22 22 21 21 21 21 21 21 21 21 20 20 20 20 20 20 20 19 19 19 19 19 19 19 19 19 19 19 19 18 18 18 18 18 18 18 18 18 18 18 18 17
22 22 22 22 21 21 21 21 21 21 21 20 20 20 20 20 20 20 20 19 19 19 19 19 19 19 19 19 18 18 18 18 18 18 18 18 18 18 18 18 18 18 18
22 22 22 22 22 21 21 21 21 21 21 21 20 20 20 20 20 20 20 19 19 19 19 19 19 18 18 18 18 18 18 18 18 18 18 18 18 18 18 18 18 18 18
22 22 22 22 22 22 21 21 21 21 21 21 21 21 20 20 20 20 19 19 19 19 19 19 18 18 18 18 18 18 18 18 18 18 18 18 18 18 18 18 18 18 18
23 23 22 22 22 22 21 21 21 21 21 21 21 21 20 20 20 20 19 19 19 19 19 18 18 18 18 18 18 18 18 18 18 18 18 18 18 18 18 18 18 18 18
23 23 22 22 22 22 21 21 21 21 21 21 21 20 20 20 20 20 20 19 19 19 19 18 18 18 18 18 18 18 18 18 18 18 18 18 18 18 18 18 18 18 18
23 23 22 22 22 21 21 21 21 21 21 21 20 20 20 19 19 19 19 19 19 19 19 19 18 18 18 18 18 18 18 18 18 18 18 18 18 18 18 18 18 18 18
23 22 22 22 22 21 21 21 20 20 20 20 20 20 19 19 19 19 19 19 19 19 19 18 18 18 18 18 18 18 18 18 18 18 18 18 18 18 18 18 18 18 18
23 22 22 21 21 21 21 20 20 20 19 19 19 19 19 19 19 19 19 19 19 19 18 18 18 18 18 18 18 18 18 18 18 18 18 18 18 19 19 19 19 19 18
23 22 22 21 21 21 20 20 20 19 19 19 19 19 19 19 18 18 18 19 19 19 18 18 18 18 18 18 18 18 18 18 18 18 18 18 19 19 19 19 19 19 19
23 22 22 21 21 21 20 20 19 19 19 19 18 18 18 18 18 18 18 18 18 18 18 18 18 18 17 18 18 18 18 18 18 18 18 18 19 19 19 19 19 19 19
23 22 22 22 21 21 20 20 19 19 19 18 18 18 18 18 18 17 18 18 18 18 18 18 18 18 18 18 18 18 18 18 18 18 18 18 18 18 19 19 19 19 19
23 22 22 22 21 21 20 20 20 19 19 19 18 18 18 18 17 17 17 17 17 17 18 18 18 18 18 17 17 17 17 17 17 18 18 18 18 18 18 19 19 19 19
23 23 23 22 21 21 20 20 20 19 19 18 18 17 17 17 17 17 17 17 17 17 17 17 17 17 17 17 17 17 16 17 18 18 18 18 18 18 18 18 18 18 18
23 23 22 22 21 21 20 20 19 19 18 18 17 17 17 16 16 16 16 16 17 17 17 17 17 17 17 17 16 16 16 16 17 17 17 17 17 17 17 17 17 17 18
23 22 22 21 21 20 20 19 19 18 17 17 16 16 16 16 16 16 16 16 16 16 16 16 16 16 16 16 16 16 16 16 15 16 16 16 16 16 16 16 16 17 17
22 22 21 21 20 20 19 19 18 17 17 16 16 16 16 16 16 16 15 15 16 16 16 16 16 16 15 15 15 15 15 15 15 15 15 15 16 16 16 16 16 16 16
21 21 21 21 20 20 19 18 18 17 16 16 16 15 15 15 15 15 15 15 15 15 15 15 15 15 15 15 15 15 15 15 15 15 15 15 15 15 15 15 15 15 16
Wind_Speed
8 13 21 20 19 18 17 17 17 18 18 18 18 17 16 15 14 13 12 11 10 9 8 8 8 8 8 8 9 10 11 11 11 11 11 12 11 11 11 12 12 11 13
14 17 22 21 20 19 18 17 17 17 17 17 17 16 15 14 13 12 11 10 10 9 8 8 8 7 7 8 8 8 9 9 9 9 10 9 9 9 10 10 11 10 13
15 17 21 21 20 19 18 17 17 16 16 16 15 15 14 13 12 11 10 9 9 9 8 8 7 7 7 7 7 7 8 8 7 8 8 6 6 6 7 9 10 12 12
15 15 18 21 20 19 18 17 16 16 15 15 14 13 13 12 11 10 9 8 8 8 7 7 7 7 7 6 6 6 6 6 6 6 5 4 3 5 6 8 10 11 12
12 14 18 22 20 19 18 17 16 16 15 14 13 13 12 11 10 9 8 8 7 7 7 7 7 7 7 6 6 6 6 5 5 5 4 4 4 4 7 8 10 11 12
11 14 18 22 20 19 18 17 16 15 14 14 13 12 11 10 10 9 9 8 8 8 8 7 7 7 7 7 7 7 7 7 6 4 4 5 6 7 9 11 13 13 13
12 12 16 22 20 19 18 18 17 16 14 13 12 12 11 10 10 10 10 10 10 9 9 9 9 9 9 8 8 8 8 8 7 6 7 7 8 10 11 14 16 16 16
14 12 15 21 20 19 18 17 17 16 15 13 13 12 11 11 11 11 11 11 11 11 11 11 11 10 10 10 10 10 10 10 9 8 8 9 11 13 13 15 19 19 19
10 9 10 15 18 19 18 17 16 15 14 13 13 12 12 12 12 12 13 13 13 13 13 13 12 12 12 12 12 12 12 12 11 9 9 9 11 14 14 15 17 21 21
9 9 7 10 12 13 15 16 16 15 14 13 13 13 13 13 13 13 13 13 14 14 14 14 14 14 14 14 13 14 14 13 12 11 11 11 14 15 16 16 17 20 22
11 9 8 7 9 10 11 14 15 15 14 14 13 14 14 12 11 11 13 14 15 16 16 16 16 15 15 15 15 15 15 12 12 11 12 14 16 17 17 18 18 20 22
15 14 10 9 8 9 11 11 11 11 11 12 11 11 10 10 10 12 12 16 17 17 17 18 17 17 15 13 14 15 12 13 12 12 13 16 17 18 18 18 19 20 22
13 12 11 10 8 8 6 6 7 8 8 10 11 11 10 9 9 11 10 12 13 15 14 14 15 14 13 12 12 12 12 12 11 12 14 17 18 19 19 19 20 20 22
9 10 9 10 9 9 7 4 5 5 6 8 11 12 10 7 7 8 9 10 11 11 11 11 10 12 13 14 14 12 13 11 11 12 14 18 19 20 20 19 20 21 21
9 10 9 9 9 8 7 5 5 6 7 9 10 11 12 8 8 7 8 9 11 12 10 9 9 9 10 11 12 11 11 12 13 13 13 17 19 19 20 20 21 21 20
10 10 8 9 9 7 7 7 6 5 7 9 10 13 14 12 9 8 9 8 9 11 11 9 10 9 8 8 10 10 10 11 12 13 14 15 18 19 20 21 21 21 21
8 8 8 8 8 8 8 7 5 5 6 6 10 13 14 14 12 9 9 9 9 10 10 8 7 6 7 7 9 10 9 9 10 12 13 13 14 16 19 20 21 21 22
8 7 8 8 9 9 7 6 5 5 6 7 10 11 14 15 15 10 10 10 9 9 7 6 6 5 7 7 7 7 7 7 10 10 11 12 13 14 16 18 19 20 22
8 8 8 7 7 8 7 6 6 5 6 7 8 9 11 13 13 10 10 9 9 8 8 8 6 5 6 7 7 7 7 7 9 9 10 12 13 14 14 15 18 20 22
8 8 8 8 7 6 5 4 4 5 5 5 5 6 8 8 10 8 8 10 9 8 8 8 8 8 7 7 8 9 7 8 8 10 11 10 10 13 13 14 14 15 19
7 8 8 8 6 4 3 3 3 3 3 3 3 4 5 5 6 5 6 7 7 8 9 10 8 9 8 6 5 6 7 9 10 9 9 9 10 10 10 10 10 11 12
7 7 6 6 5 5 3 2 1 1 2 2 3 4 5 5 5 5 5 6 6 6 8 9 7 5 6 7 6 4 4 4 5 7 6 7 8 6 7 7 7 8 9
6 7 6 6 5 4 2 1 1 2 2 3 3 4 5 6 7 6 7 6 6 6 7 8 8 9 8 7 7 6 5 6 3 3 4 5 5 5 5 5 6 5 6
6 5 4 4 3 2 2 2 2 1 2 3 3 4 6 6 7 7 7 7 7 6 7 8 8 8 9 8 6 8 7 4 4 3 2 3 4 5 5 4 4 3 2
4 4 4 3 3 2 2 3 2 2 3 3 4 6 6 6 7 8 8 7 7 7 8 8 7 8 8 8 6 5 6 6 6 5 4 3 2 3 3 3 2 0 1
3 4 4 4 4 3 3 3 3 3 3 4 5 6 6 6 6 8 8 8 8 7 8 8 8 9 9 9 8 7 5 4 5 6 7 4 3 2 1 1 1 1 1
Wind_Direction
167 164 164 160 155 151 147 142 139 137 137 138 139 140 140 140 139 138 137 136 134 132 128 124 119 117 118 119 119 119 120 122 124 126 126 126 125 126 127 126 126 127 127
155 162 164 161 157 154 151 148 146 144 144 145 146 146 145 145 143 142 141 141 141 140 137 134 131 128 127 127 127 126 126 127 131 135 135 133 133 135 139 137 138 140 138
149 160 163 161 159 157 156 155 153 152 152 152 152 152 151 151 150 150 150 150 150 149 148 147 144 141 140 138 137 136 135 136 139 144 140 132 139 146 154 155 153 152 149
149 157 161 162 161 161 161 161 161 160 160 160 160 159 159 159 159 161 162 162 163 163 162 162 161 159 158 157 156 154 154 154 158 159 150 164 175 172 173 172 169 167 163
147 156 164 164 165 166 167 168 168 168 169 169 169 170 171 172 174 176 178 181 183 183 183 183 183 181 180 182 183 184 186 188 193 188 184 207 227 221 202 191 185 184 179
149 157 169 167 169 171 173 174 175 176 177 178 180 182 185 188 192 196 199 204 207 208 207 207 207 207 206 207 208 210 213 217 221 222 225 235 239 240 228 213 203 200 196
154 160 173 172 175 177 179 180 180 182 184 186 190 194 198 203 209 213 216 220 223 225 225 225 226 227 227 228 230 231 233 237 234 228 237 244 247 246 244 234 219 210 207
159 162 175 177 181 183 185 186 187 189 191 194 199 204 210 216 222 227 229 231 232 234 235 237 238 239 241 242 244 246 247 250 253 242 240 244 249 252 253 248 231 218 213
157 159 173 180 185 189 191 194 196 197 200 204 209 214 220 226 232 237 239 240 241 242 243 246 248 250 251 250 251 252 255 256 257 254 253 250 252 256 257 257 242 223 218
157 165 169 175 181 187 194 200 203 206 209 213 218 224 229 235 240 244 245 247 250 252 252 254 256 257 258 257 257 259 261 264 262 260 258 258 258 259 260 260 252 232 223
174 178 176 173 176 181 189 203 207 212 216 219 225 231 235 238 246 252 255 254 257 259 261 261 261 262 262 262 261 262 264 262 262 263 262 261 262 261 260 258 256 244 232
186 189 188 184 179 178 194 204 209 214 218 221 224 232 239 238 241 251 256 260 262 264 265 264 263 262 262 260 260 262 260 260 263 265 264 264 265 265 263 259 255 251 242
189 189 193 193 188 189 199 201 208 215 220 225 227 229 236 243 247 252 255 260 263 266 268 266 265 259 253 251 252 251 252 258 261 263 265 266 266 268 267 263 258 255 250
182 193 192 194 196 201 203 210 214 220 225 231 234 234 233 241 246 248 250 252 252 254 254 256 256 255 252 250 249 250 251 252 255 258 262 265 266 267 270 269 266 263 259
184 190 190 191 199 203 207 218 222 227 233 238 241 240 235 239 247 248 251 251 250 248 245 246 248 250 252 254 251 249 251 251 253 254 258 264 266 267 270 272 271 269 264
188 188 185 190 196 198 211 220 231 230 236 240 243 242 236 238 243 245 248 247 248 246 244 243 247 250 254 257 258 253 251 253 255 255 256 263 266 267 268 270 271 269 264
183 180 182 192 194 203 216 223 232 240 242 244 247 246 241 238 240 242 249 250 250 250 247 248 254 255 259 257 259 260 258 255 256 258 259 260 263 265 263 263 265 265 262
168 173 185 198 198 206 214 225 235 246 246 248 252 253 249 244 241 240 245 250 247 243 240 240 246 255 260 258 260 264 259 256 257 257 259 257 258 262 262 261 261 262 261
159 165 175 187 196 203 210 223 234 236 241 247 252 253 254 252 247 239 243 247 242 238 235 234 227 223 243 249 252 253 251 251 255 259 259 258 257 258 261 263 262 261 261
145 158 166 178 191 192 204 228 244 252 252 250 254 259 262 260 258 248 245 246 242 236 232 222 219 217 224 234 252 256 245 247 251 252 257 260 258 260 263 265 265 263 258
147 157 168 179 190 177 185 214 235 251 259 268 272 282 291 288 284 269 261 253 244 239 236 226 221 224 226 219 235 258 256 247 247 248 251 255 257 261 265 264 262 258 257
162 169 172 183 185 188 191 200 218 258 283 281 301 314 317 317 309 294 274 267 258 251 246 234 226 226 230 206 211 228 261 268 248 246 246 248 252 257 263 268 267 260 255
178 182 182 187 190 199 196 105 29 10 345 331 323 317 316 317 312 300 290 280 269 256 253 247 233 227 233 223 208 206 219 236 254 265 248 245 246 252 262 273 270 268 262
205 195 190 188 192 202 175 168 187 234 273 274 292 298 307 308 308 304 296 286 278 270 265 260 244 234 233 235 223 220 222 199 207 252 263 250 250 257 265 269 269 267 270
215 202 200 189 202 206 193 192 205 244 256 285 299 303 307 308 307 307 301 293 284 276 270 264 255 239 232 232 221 208 218 220 220 223 248 258 269 266 275 275 257 273 18
212 199 193 193 213 219 211 205 210 239 266 293 305 308 311 309 308 310 310 301 290 281 273 265 256 244 236 233 226 210 197 195 202 210 226 234 248 265 298 342 43 42 44
Height
1508 1512 1515 1519 1522 1525 1527 1529 1532 1533 1535 1536 1537 1539 1540 1540 1541 1542 1542 1543 1544 1544 1545 1546 1546 1547 1547 1548 1548 1548 1548 1549 1549 1549 1549 1550 1550 1551 1551 1552 1552 1553 1553
1507 1511 1516 1519 1523 1525 1528 1530 1532 1534 1536 1537 1539 1540 1541 1542 1543 1544 1544 1545 1545 1546 1546 1547 1547 1548 1548 1549 1549 1550 1550 1550 1550 1551 1551 1551 1552 1552 1553 1553 1554 1554 1555
1508 1512 1516 1520 1523 1526 1529 1531 1533 1535 1537 1538 1540 1541 1543 1544 1545 1545 1546 1546 1547 1547 1548 1548 1549 1549 1550 1550 1550 1551 1551 1552 1552 1552 1552 1553 1553 1554 1554 1554 1555 1555 1556
1509 1513 1517 1521 1524 1527 1530 1532 1534 1536 1538 1539 1541 1542 1544 1545 1546 1546 1547 1548 1548 1548 1549 1549 1549 1550 1550 1551 1551 1552 1552 1552 1553 1553 1553 1554 1554 1554 1555 1555 1555 1556 1557
1511 1515 1518 1522 1525 1528 1531 1533 1535 1537 1539 1540 1542 1543 1544 1545 1546 1547 1548 1548 1549 1549 1550 1550 1550 1550 1551 1551 1551 1552 1552 1553 1553 1553 1554 1554 1554 1555 1555 1555 1556 1556 1557
1513 1516 1520 1523 1526 1529 1531 1534 1536 1538 1539 1541 1542 1543 1545 1546 1546 1547 1548 1549 1549 1549 1550 1550 1550 1551 1551 1551 1551 1552 1552 1552 1552 1553 1553 1554 1554 1554 1554 1555 1555 1556 1556
1514 1517 1521 1524 1527 1530 1532 1534 1536 1538 1539 1541 1542 1543 1544 1545 1546 1547 1547 1548 1548 1549 1549 1550 1550 1550 1550 1551 1551 1551 1551 1551 1551 1552 1552 1552 1553 1553 1553 1554 1554 1555 1555
1515 1518 1521 1525 1527 1530 1532 1534 1536 1538 1540 1541 1542 1543 1544 1545 1545 1546 1546 1547 1547 1548 1548 1549 1549 1549 1549 1549 1550 1550 1550 1550 1550 1550 1550 1550 1551 1551 1552 1552 1553 1553 1554
1516 1519 1522 1525 1527 1530 1532 1535 1536 1538 1540 1541 1542 1543 1543 1544 1545 1545 1546 1546 1546 1547 1547 1547 1548 1548 1548 1548 1548 1548 1548 1548 1548 1548 1548 1548 1548 1549 1549 1550 1551 1551 1552
1516 1519 1522 1524 1527 1529 1532 1534 1536 1537 1539 1540 1541 1542 1543 1543 1544 1544 1545 1545 1545 1545 1546 1546 1546 1546 1546 1546 1546 1546 1546 1546 1546 1546 1545 1545 1546 1546 1546 1547 1548 1549 1549
1515 1518 1521 1523 1526 1529 1531 1533 1535 1536 1537 1539 1540 1541 1541 1542 1542 1543 1543 1544 1544 1544 1544 1544 1544 1544 1544 1544 1544 1544 1543 1543 1543 1543 1543 1543 1543 1543 1543 1544 1545 1546 1547
1512 1516 1519 1522 1525 1528 1530 1531 1533 1534 1535 1537 1538 1539 1539 1540 1541 1541 1541 1542 1542 1542 1542 1542 1542 1542 1541 1541 1541 1541 1541 1541 1540 1540 1540 1540 1540 1540 1540 1541 1542 1543 1544
1512 1516 1519 1522 1525 1527 1529 1530 1531 1533 1534 1535 1536 1537 1537 1538 1538 1538 1539 1539 1539 1540 1540 1540 1540 1539 1539 1539 1539 1538 1538 1538 1537 1537 1538 1538 1538 1538 1538 1538 1539 1539 1540
1513 1516 1519 1522 1524 1526 1527 1529 1530 1531 1532 1533 1534 1535 1535 1535 1535 1536 1536 1536 1536 1537 1537 1537 1537 1537 1537 1536 1536 1536 1535 1535 1535 1535 1535 1535 1535 1535 1535 1535 1535 1536 1536
1514 1517 1519 1522 1524 1525 1526 1527 1527 1528 1529 1530 1531 1532 1532 1532 1532 1532 1532 1532 1533 1533 1533 1533 1534 1533 1533 1533 1533 1532 1532 1532 1532 1532 1532 1532 1532 1532 1532 1532 1532 1532 1532
1514 1516 1519 1521 1523 1525 1525 1525 1525 1525 1526 1527 1528 1528 1528 1528 1528 1528 1528 1528 1528 1528 1529 1529 1529 1529 1529 1529 1529 1529 1528 1528 1528 1528 1528 1528 1528 1528 1528 1528 1528 1527 1527
1513 1516 1518 1520 1522 1523 1523 1523 1523 1523 1523 1524 1524 1524 1524 1523 1524 1524 1523 1523 1523 1523 1523 1523 1524 1524 1524 1524 1524 1524 1524 1524 1523 1523 1523 1523 1523 1522 1522 1522 1522 1522 1522
1513 1515 1517 1519 1520 1521 1521 1521 1521 1521 1521 1520 1520 1519 1519 1519 1519 1518 1517 1517 1517 1517 1517 1517 1517 1517 1518 1518 1518 1518 1518 1517 1517 1517 1517 1517 1516 1516 1516 1516 1516 1516 1516
1513 1514 1516 1518 1518 1519 1519 1519 1518 1518 1517 1516 1516 1515 1514 1513 1513 1512 1511 1510 1510 1510 1510 1510 1509 1510 1510 1510 1510 1510 1511 1511 1511 1511 1511 1510 1510 1509 1509 1509 1509 1509 1509
1512 1513 1515 1516 1516 1517 1517 1516 1516 1515 1514 1513 1512 1511 1509 1508 1507 1506 1504 1503 1503 1503 1502 1501 1501 1501 1502 1503 1503 1503 1503 1503 1504 1504 1504 1504 1503 1503 1502 1502 1501 1501 1502
1511 1512 1514 1514 1515 1515 1514 1514 1513 1512 1511 1510 1508 1506 1504 1502 1500 1498 1497 1496 1495 1495 1494 1493 1493 1494 1494 1495 1496 1495 1495 1496 1496 1497 1497 1497 1496 1496 1495 1495 1494 1494 1494
1510 1511 1512 1513 1513 1513 1513 1512 1511 1509 1508 1506 1504 1502 1499 1497 1495 1493 1491 1489 1488 1487 1487 1486 1486 1486 1486 1488 1488 1489 1488 1489 1488 1489 1489 1489 1489 1489 1488 1488 1487 1487 1488
1509 1510 1511 1512 1512 1512 1511 1510 1509 1507 1505 1502 1500 1497 1495 1492 1490 1487 1485 1483 1482 1480 1479 1479 1479 1479 1478 1479 1481 1482 1482 1480 1481 1481 1481 1482 1483 1482 1482 1482 1482 1481 1481
1508 1509 1510 1510 1510 1510 1509 1507 1506 1504 1501 1499 1496 1493 1490 1487 1484 1482 1479 1477 1476 1474 1473 1472 1472 1471 1471 1472 1473 1474 1475 1475 1477 1475 1476 1476 1477 1477 1477 1477 1477 1476 1476
1506 1507 1508 1508 1508 1508 1506 1505 1503 1500 1498 1495 1492 1489 1486 1483 1480 1477 1474 1471 1469 1467 1466 1465 1465 1464 1464 1465 1466 1467 1468 1469 1470 1471 1470 1471 1472 1472 1472 1472 1472 1472 1472
1504 1505 1506 1506 1506 1505 1503 1502 1499 1497 1494 1491 1488 1485 1481 1478 1474 1471 1468 1465 1463 1461 1459 1458 1458 1457 1458 1458 1459 1460 1461 1462 1463 1464 1465 1465 1467 1468 1468 1468 1468 1468 1469